When you browse on this site, cookies collect data to enhance your experience and personalize the content and advertising you see.
Visit our Privacy Policy to learn more. By continuing to use the site, you agree to this use of cookies and data.
  • In Germany
  • List of Countries
  • For 7 days
  • Water Temperature
  • Weather Map
  • Weather Widgets
  • user-avatar
    Login

    Hourly Weather Tirana

    Today, 14 December, Saturday

    Time Temperature Precipitation Wind Pressure Humidity
    00:00 +8°C° 1.8 mm 9 mps 734 mmHg 79%
    01:00 +8°C° 0 mm 11 mps 733 mmHg 83%
    02:00 +8°C° 1.3 mm 9 mps 733 mmHg 83%
    03:00 +9°C° 1.3 mm 7 mps 733 mmHg 83%
    04:00 +8°C° 1.3 mm 5 mps 734 mmHg 82%
    05:00 +8°C° 0.2 mm 5 mps 734 mmHg 82%
    06:00 +8°C° 0.2 mm 4 mps 735 mmHg 82%
    07:00 +7°C° 0.2 mm 4 mps 736 mmHg 82%
    08:00 +10°C° 0.2 mm 3 mps 737 mmHg 78%
    09:00 +11°C° 0.2 mm 3 mps 738 mmHg 74%
    10:00 +12°C° 0.2 mm 3 mps 739 mmHg 70%
    11:00 +13°C° 0 mm 3 mps 739 mmHg 68%
    12:00 +13°C° 0 mm 4 mps 740 mmHg 65%
    13:00 +14°C° 0 mm 4 mps 740 mmHg 63%
    14:00 +13°C° 0 mm 4 mps 741 mmHg 70%
    15:00 +12°C° 0 mm 4 mps 743 mmHg 76%
    16:00 +11°C° 0 mm 4 mps 744 mmHg 82%
    17:00 +11°C° 0 mm 4 mps 745 mmHg 82%
    18:00 +10°C° 0 mm 4 mps 746 mmHg 83%
    19:00 +10°C° 0 mm 4 mps 747 mmHg 83%
    20:00 +10°C° 0 mm 4 mps 748 mmHg 82%
    21:00 +10°C° 0 mm 3 mps 749 mmHg 81%
    22:00 +9°C° 0 mm 2 mps 749 mmHg 81%
    23:00 +9°C° 0 mm 2 mps 750 mmHg 80%

    Tomorrow, 15 December, Sunday

    Time Temperature Precipitation Wind Pressure Humidity
    00:00 +9°C° 0 mm 2 mps 751 mmHg 79%
    01:00 +9°C° 0 mm 2 mps 751 mmHg 77%
    02:00 +9°C° 0 mm 2 mps 752 mmHg 76%
    03:00 +9°C° 0 mm 2 mps 752 mmHg 74%
    04:00 +8°C° 0 mm 2 mps 752 mmHg 72%
    05:00 +8°C° 0 mm 2 mps 753 mmHg 72%
    06:00 +8°C° 0 mm 2 mps 754 mmHg 72%
    07:00 +8°C° 0 mm 2 mps 754 mmHg 71%
    08:00 +10°C° 0 mm 2 mps 755 mmHg 69%
    09:00 +13°C° 0 mm 2 mps 755 mmHg 66%
    10:00 +14°C° 0 mm 2 mps 756 mmHg 64%
    11:00 +15°C° 0 mm 2 mps 756 mmHg 62%
    12:00 +16°C° 0 mm 1 mps 756 mmHg 60%
    13:00 +18°C° 0 mm 1 mps 756 mmHg 58%
    14:00 +16°C° 0 mm 2 mps 756 mmHg 63%
    15:00 +15°C° 0 mm 2 mps 756 mmHg 68%
    16:00 +13°C° 0 mm 3 mps 756 mmHg 72%
    17:00 +13°C° 0 mm 3 mps 757 mmHg 73%
    18:00 +12°C° 0 mm 3 mps 757 mmHg 74%
    19:00 +12°C° 0 mm 4 mps 757 mmHg 74%
    20:00 +12°C° 0 mm 3 mps 758 mmHg 73%
    21:00 +12°C° 0 mm 3 mps 758 mmHg 72%
    22:00 +11°C° 0 mm 3 mps 759 mmHg 71%
    23:00 +11°C° 0 mm 3 mps 759 mmHg 71%

    Day after tomorrow, 16 December, Monday

    Time Temperature Precipitation Wind Pressure Humidity
    00:00 +11°C° 0 mm 3 mps 759 mmHg 70%
    01:00 +11°C° 0 mm 3 mps 759 mmHg 69%
    02:00 +11°C° 0 mm 3 mps 759 mmHg 70%
    03:00 +11°C° 0 mm 3 mps 759 mmHg 70%
    04:00 +11°C° 0 mm 3 mps 759 mmHg 71%
    05:00 +10°C° 0 mm 3 mps 760 mmHg 71%
    06:00 +10°C° 0 mm 3 mps 760 mmHg 72%
    07:00 +10°C° 0 mm 3 mps 760 mmHg 72%
    08:00 +12°C° 0 mm 3 mps 760 mmHg 69%
    09:00 +13°C° 0 mm 3 mps 760 mmHg 66%
    10:00 +16°C° 0 mm 3 mps 761 mmHg 63%
    11:00 +17°C° 0 mm 2 mps 760 mmHg 62%
    12:00 +17°C° 0 mm 2 mps 760 mmHg 60%
    13:00 +18°C° 0 mm 2 mps 760 mmHg 58%
    14:00 +17°C° 0 mm 2 mps 760 mmHg 63%
    15:00 +16°C° 0 mm 2 mps 760 mmHg 68%
    16:00 +15°C° 0 mm 2 mps 760 mmHg 73%
    17:00 +14°C° 0 mm 2 mps 760 mmHg 74%
    18:00 +13°C° 0 mm 3 mps 760 mmHg 76%
    19:00 +12°C° 0 mm 3 mps 760 mmHg 78%
    20:00 +12°C° 0 mm 3 mps 760 mmHg 78%
    21:00 +12°C° 0 mm 3 mps 760 mmHg 79%
    22:00 +11°C° 0 mm 3 mps 760 mmHg 79%
    23:00 +11°C° 0 mm 3 mps 760 mmHg 79%

    17 December, Tuesday

    Time Temperature Precipitation Wind Pressure Humidity
    00:00 +11°C° 0 mm 3 mps 760 mmHg 79%
    01:00 +11°C° 0 mm 3 mps 760 mmHg 78%
    02:00 +11°C° 0 mm 3 mps 760 mmHg 79%
    03:00 +11°C° 0 mm 3 mps 760 mmHg 79%
    04:00 +11°C° 0 mm 3 mps 760 mmHg 80%
    05:00 +10°C° 0 mm 3 mps 760 mmHg 80%
    06:00 +10°C° 0 mm 3 mps 760 mmHg 80%
    07:00 +10°C° 0 mm 3 mps 760 mmHg 81%
    08:00 +12°C° 0 mm 3 mps 760 mmHg 76%
    09:00 +13°C° 0 mm 3 mps 760 mmHg 72%
    10:00 +16°C° 0 mm 3 mps 760 mmHg 68%
    11:00 +16°C° 0 mm 3 mps 760 mmHg 66%
    12:00 +17°C° 0 mm 3 mps 759 mmHg 64%
    13:00 +18°C° 0 mm 3 mps 759 mmHg 62%
    14:00 +17°C° 0 mm 3 mps 759 mmHg 66%
    15:00 +16°C° 0 mm 3 mps 759 mmHg 71%
    16:00 +14°C° 0 mm 3 mps 759 mmHg 75%
    17:00 +14°C° 0 mm 3 mps 759 mmHg 76%
    18:00 +13°C° 0 mm 3 mps 759 mmHg 77%
    19:00 +12°C° 0 mm 3 mps 760 mmHg 79%
    20:00 +12°C° 0 mm 3 mps 760 mmHg 79%
    21:00 +12°C° 0 mm 3 mps 760 mmHg 79%
    22:00 +12°C° 0 mm 3 mps 760 mmHg 79%
    23:00 +11°C° 0 mm 3 mps 760 mmHg 80%

    18 December, Wednesday

    Time Temperature Precipitation Wind Pressure Humidity
    00:00 +11°C° 0 mm 3 mps 759 mmHg 80%
    01:00 +11°C° 0 mm 3 mps 759 mmHg 80%
    02:00 +11°C° 0 mm 3 mps 759 mmHg 81%
    03:00 +11°C° 0 mm 3 mps 759 mmHg 81%
    04:00 +11°C° 0 mm 4 mps 759 mmHg 81%
    05:00 +11°C° 0 mm 3 mps 759 mmHg 81%
    06:00 +11°C° 0 mm 3 mps 759 mmHg 81%
    07:00 +10°C° 0 mm 3 mps 759 mmHg 80%
    08:00 +12°C° 0 mm 3 mps 759 mmHg 75%
    09:00 +14°C° 0 mm 3 mps 759 mmHg 70%
    10:00 +16°C° 0 mm 3 mps 759 mmHg 64%
    11:00 +17°C° 0 mm 3 mps 759 mmHg 62%
    12:00 +17°C° 0 mm 2 mps 758 mmHg 59%
    13:00 +18°C° 0 mm 2 mps 758 mmHg 56%
    14:00 +17°C° 0 mm 2 mps 758 mmHg 61%
    15:00 +16°C° 0 mm 2 mps 758 mmHg 66%
    16:00 +15°C° 0 mm 2 mps 758 mmHg 70%
    17:00 +15°C° 0 mm 2 mps 758 mmHg 71%
    18:00 +15°C° 0 mm 2 mps 758 mmHg 72%
    19:00 +14°C° 0 mm 2 mps 758 mmHg 73%
    20:00 +14°C° 0 mm 2 mps 758 mmHg 72%
    21:00 +14°C° 0 mm 2 mps 758 mmHg 71%
    22:00 +13°C° 0 mm 3 mps 758 mmHg 70%
    23:00 +12°C° 0 mm 3 mps 758 mmHg 69%

    19 December, Thursday

    Time Temperature Precipitation Wind Pressure Humidity
    00:00 +12°C° 0 mm 3 mps 757 mmHg 69%
    01:00 +12°C° 0 mm 4 mps 757 mmHg 68%
    02:00 +12°C° 0 mm 4 mps 757 mmHg 66%
    03:00 +12°C° 0 mm 4 mps 757 mmHg 65%
    04:00 +12°C° 0 mm 4 mps 756 mmHg 63%
    05:00 +12°C° 0.1 mm 5 mps 756 mmHg 61%
    06:00 +12°C° 0.1 mm 5 mps 756 mmHg 59%
    07:00 +12°C° 0.1 mm 5 mps 756 mmHg 58%
    08:00 +13°C° 0.1 mm 5 mps 756 mmHg 59%
    09:00 +13°C° 0.1 mm 6 mps 756 mmHg 61%
    10:00 +14°C° 0.1 mm 6 mps 756 mmHg 62%
    11:00 +14°C° 0.5 mm 6 mps 755 mmHg 64%
    12:00 +15°C° 0.5 mm 6 mps 755 mmHg 65%
    13:00 +15°C° 0.5 mm 6 mps 754 mmHg 66%
    14:00 +15°C° 0.8 mm 7 mps 754 mmHg 69%
    15:00 +13°C° 0.8 mm 8 mps 753 mmHg 72%
    16:00 +13°C° 0.8 mm 8 mps 753 mmHg 75%
    17:00 +12°C° 2.3 mm 8 mps 753 mmHg 82%
    18:00 +12°C° 2.3 mm 8 mps 753 mmHg 88%
    19:00 +11°C° 2.3 mm 8 mps 753 mmHg 94%
    20:00 +11°C° 1.3 mm 7 mps 754 mmHg 93%
    21:00 +11°C° 1.3 mm 6 mps 754 mmHg 91%
    22:00 +12°C° 1.3 mm 5 mps 754 mmHg 89%
    23:00 +12°C° 0.4 mm 5 mps 754 mmHg 88%
    Show more